Tracking 35334 objects as of 13-Sep-2026
HD Live streaming from Space Station
objects crossing your sky now

SL-12 DEB


SL-12 DEB is no longer on orbit


NORAD ID: 28757
Int'l Code: 2002-037BC
Launch date: July 25, 2002
Source: Commonwealth of Independent States (former USSR) (CIS)
Launch site: TYURATAM MISSILE AND SPACE COMPLEX (TTMTR)
Decay date: 2005-10-09

Note: This is SATELLITE DEBRIS
Your satellite tracking list
Your tracking list is empty




NASA's NSSDC Master Catalog

Two Line Element Set (TLE):
1 28757U 02037BC  05282.55930053  .55087241  79456-5  22247-1 0  9994
2 28757 063.3996 071.2881 0041669 107.0784 253.4963 16.20633248 14975
Source of the keplerian elements: AFSPC